Fort Knox, KY

1:40 AM EST on December 07, 2019 (GMT -0500)
Godman Army Air Field

Weather History for KFTK - October, 2019

Change the Weather History Date:

Monday, October 14, 2019

  Actual Average Record
Temperature  
Mean Temperature 56 °F -  
Max Temperature 71 °F 66 °F 83 °F (2017)
Min Temperature 41 °F 44 °F 33 °F (2006)
Degree Days  
Heating Degree Days 10    
Growing Degree Days 6 (Base 50)    
Moisture  
Dew Point 37 °F    
Average Humidity 56    
Maximum Humidity 87    
Minimum Humidity 24    
Precipitation  
Precipitation 0.00 in - - ()
Sea Level Pressure  
Sea Level Pressure 30.10 in    
Wind  
Wind Speed 5 mph (SW)    
Max Wind Speed 13 mph    
Max Gust Speed 17 mph    
Visibility 10 miles    
Events      
Averages and records for this station are not official NWS values.
T = Trace of Precipitation, MM = Missing Value Source: NWS Daily Summary

Daily Weather History Graph

Daily Weather History Graph

Search for Another Location

Airport or City:

Astronomy

Oct. 14, 2019 Rise Set
Actual Time 7:51 AM EDT 7:07 PM EDT
Civil Twilight 7:24 AM EDT 7:34 PM EDT
Nautical Twilight 6:54 AM EDT 8:04 PM EDT
Astronomical Twilight 6:23 AM EDT 8:35 PM EDT
Moon 7:58 PM EDT (10/14) 8:22 AM EDT (10/14)
Length of Visible Light 12h 09m
Length of Day
11h 16m
Waxing Gibbous, 99% of the Moon is Illuminated
Oct 14
Waxing Gibbous
Oct 21
Last Quarter
Oct 27
New
Nov 4
First Quarter
Nov 12
Full

Hourly Weather History & Observations

Time (EDT) Temp. Windchill Dew Point Humidity Pressure Visibility Wind Dir Wind Speed Gust Speed Precip Events Conditions
12:56 AM 51.4 °F - 37.6 °F 59% 30.03 in 10.0 mi SW 6.9 mph - N/A   Clear
1:56 AM 50.5 °F - 37.6 °F 61% 30.03 in 10.0 mi SW 8.1 mph - N/A   Clear
2:56 AM 49.3 °F - 37.6 °F 64% 30.04 in 10.0 mi SW 4.6 mph - N/A   Clear
3:56 AM 49.3 °F - 37.6 °F 64% 30.04 in 10.0 mi SW 5.8 mph - N/A   Clear
4:56 AM 47.8 °F - 37.8 °F 68% 30.05 in 10.0 mi WSW 5.8 mph - N/A   Clear
5:43 AM 46.4 °F 44.3 °F 37.4 °F 71% 30.07 in 10.0 mi SW 4.6 mph - N/A   Clear
5:56 AM 46.6 °F - 38.1 °F 72% 30.07 in 10.0 mi SSW 3.5 mph - N/A   Clear
7:29 AM 44.6 °F - 39.2 °F 81% 30.12 in 10.0 mi Calm Calm - N/A   Clear
7:56 AM 43.2 °F 41.5 °F 38.1 °F 82% 30.11 in 10.0 mi South 3.5 mph - N/A   Clear
8:25 AM 41.0 °F - 37.4 °F 87% 30.13 in 10.0 mi Calm Calm - N/A   Clear
8:56 AM 46.0 °F - 41.2 °F 83% 30.14 in 10.0 mi Calm Calm - N/A   Clear
9:34 AM 51.8 °F - 41.0 °F 67% 30.15 in 10.0 mi SSW 3.5 mph - N/A   Clear
9:56 AM 53.2 °F - 41.7 °F 65% 30.15 in 10.0 mi South 4.6 mph - N/A   Clear
10:56 AM 57.9 °F - 43.2 °F 58% 30.15 in 10.0 mi South 3.5 mph - N/A   Clear
11:56 AM 64.0 °F - 38.7 °F 39% 30.15 in 10.0 mi WSW 4.6 mph - N/A   Clear
12:56 PM 66.9 °F - 33.6 °F 29% 30.15 in 10.0 mi SSW 4.6 mph - N/A   Clear
1:24 PM 66.2 °F - 33.8 °F 30% 30.13 in 10.0 mi WNW 12.7 mph 17.3 mph N/A   Clear
1:56 PM 68.7 °F - 33.4 °F 27% 30.13 in 10.0 mi WNW 6.9 mph - N/A   Clear
2:26 PM 68.0 °F - 33.8 °F 28% 30.11 in 10.0 mi WSW 4.6 mph - N/A   Clear
2:56 PM 70.0 °F - 32.5 °F 25% 30.10 in 10.0 mi SW 8.1 mph - N/A   Clear
3:56 PM 70.0 °F - 31.5 °F 24% 30.09 in 10.0 mi West 6.9 mph - N/A   Clear
4:56 PM 70.2 °F - 31.6 °F 24% 30.09 in 10.0 mi West 5.8 mph - N/A   Clear
5:56 PM 68.9 °F - 32.5 °F 26% 30.09 in 10.0 mi WNW 4.6 mph - N/A   Clear
6:56 PM 62.1 °F - 38.1 °F 41% 30.09 in 10.0 mi WNW 3.5 mph - N/A   Clear
7:56 PM 54.7 °F - 38.8 °F 55% 30.10 in 10.0 mi Calm Calm - N/A   Clear
8:56 PM 50.0 °F - 40.3 °F 69% 30.12 in 10.0 mi Calm Calm - N/A   Clear
9:56 PM 47.8 °F - 39.2 °F 72% 30.12 in 10.0 mi Calm Calm - N/A   Clear
10:56 PM 48.4 °F - 40.1 °F 73% 30.11 in 10.0 mi Calm Calm - N/A   Clear
11:56 PM 45.7 °F - 41.4 °F 85% 30.11 in 10.0 mi Calm Calm - N/A   Clear